SL-16 R/B (24298 NORAD) Tracking and Keplerian Element Data

This shows tracking and keplerian element data for the satellite.

Feedback or suggestion? Click here.




ElementValue
Catalog24298
NameSL-16 R/B
Epoch Orbit30817
Epoch Day16.04682405
Epoch Year2022
RAAN132.4299
Inclination70.8202
Eccentricity0.0018657
Argument of Perigee221.3675
Mean Anonmoly138.6034
Mean Motion14.12402923
Decay Rate-7.4E-07
L11 24298U 96051B 22016.04682405 -.00000074 00000+0 -13379-4 0 9995
L22 24298 70.8202 132.4299 0018657 221.3675 138.6034 14.12402923308171

Live tracking and technical data element details for SL-16 R/B (NORAD 24298). SL-16 R/B can be tracked NOW for your location showing map with azimuth and elevation plus other details from your city location.

Track the satellite on the map from your city or location and see movement details for azimuth, elevation, latitude, longitude, range, height, and movement on the map or in text.







IsCatalogInMostPopularTable: catalog: 24298, numindb: 272
Update: records affected: 1



GetName: 24298 SL-16 R/B

Hit Count: updated at: Mon, 17 Jan 2022 00:54:49 GMT